Погода в Наске

Перу     14°50′24″S   74°56′32″W
темп.,
°C
ветер,
м/с
пор.,
м/с
влажн.,
%
обл.,
%
осадки,
мм/ч
давл.,
гПа
погр.,
м
2 августа, пн
пн201:00+16з11610 0.0 101668
04:00+15юз11650 0.0 101535
07:00+16юз11610 0.0 101642
10:00+21зюз21440 0.0 1017331
13:00+24з21330 0.0 1015623
16:00+26зюз22300 0.0 1013745
19:00+21юз11470 0.0 101590
22:00+19зюз11520 0.0 101641
3 августа, вт
вт301:00+18ююз01550 0.0 101519
04:00+17в00560 0.0 101411
07:00+18ююз11540 0.0 101422
10:00+23зюз21380 0.0 1015357
13:00+26зюз32280 0.0 1012775
16:00+27зюз42280 0.0 1011850
19:00+22з11430 0.0 101379
22:00+21ююз11460 0.0 101418
4 августа, ср
ср401:00+20зсз01480 0.0 101312
04:00+18зюз11560 0.0 101411
07:00+18ююз01530 0.0 101523
10:00+24юз21350 0.0 1015372
13:00+28з32240 0.0 1012860
16:00+27з42260 0.0 1011730
19:00+21з22440 0.0 1016136
22:00+18юз01550 0.0 101867
5 августа, чт
чт501:00+18юз11570 0.0 101637
04:00+16юз11640 0.0 101621
07:00+16юз11650 0.0 101752
10:00+22юз21400 0.0 1016371
13:00+26з32260 0.0 1014791
16:00+26з32250 0.0 1013824
19:00+20зсз11474 0.0 1016109
22:00+18з11601 0.0 101772
6 августа, пт
пт601:00+16з11650 0.0 101668
04:00+15юв00700 0.0 101624
07:00+15зюз11710 0.0 101756
10:00+20зюз31490 0.0 1017381
13:00+23з32410 0.0 1015748
16:00+23з42403 0.0 1015635
19:00+19зюз11544 0.0 1016107
22:00+19юз01551 0.0 101721